Location: Damada
(14.7329°N, 3.1761°W)
Time: 10:30:54
(UTC+00:00)

HJ-1C - Pass Details

Date: 18 February 2020
Orbit: 435 x 445 km, 97.2° (Epoch: 04 April)

Event Time Altitude Azimuth Distance (km) Brightness Sun altitude
Rises 19:34:46 0° 168° (SSE) 2,416 7.1 -19.2°
Reaches altitude 10° 19:36:47 10° 168° (SSE) 1,546 6.1 -19.7°
Maximum altitude 19:40:05 87° 79° (E) 442 3.2 -20.5°
Drops below altitude 10° 19:43:23 10° 350° (N) 1,542 6.1 -21.3°
Sets 19:45:24 0° 350° (N) 2,408 7.1 -21.7°
